Temperature
12 11 11 12 13 13 13 13 13 14 16 15 14 15 16 17 17 17 18 19 20 20 21 21 21 21 20 20 20 19 18 17 16 15 14 13 13 12 12 11 11 11 10 10
10 11 12 13 13 13 13 13 13 14 15 15 14 14 15 15 16 17 18 19 20 20 21 21 21 21 21 20 20 19 19 18 17 16 15 15 14 13 12 11 11 11 10 10
10 12 13 13 13 13 13 13 13 13 15 15 15 14 14 15 16 17 18 19 20 20 20 21 21 21 20 20 20 20 19 18 17 17 15 14 12 12 11 11 11 11 10 10
11 12 13 13 13 13 13 14 14 14 13 12 14 12 13 14 15 15 17 18 19 20 20 20 20 20 20 20 20 20 19 18 18 16 15 14 13 12 12 12 11 11 10 10
11 12 12 12 13 13 13 14 14 14 13 12 12 12 12 13 14 15 16 18 19 20 20 20 20 20 20 20 20 19 19 18 17 16 15 14 14 13 13 12 11 11 10 10
11 12 13 13 14 14 14 14 13 12 12 11 12 12 11 12 14 15 16 17 19 20 20 20 20 20 19 19 19 19 18 17 17 16 15 14 14 13 12 12 11 11 10 10
10 11 12 13 13 13 13 12 12 11 11 10 11 12 12 13 14 15 15 17 19 19 19 19 19 19 19 19 18 18 17 17 16 16 15 14 14 13 13 12 11 11 10 10
9 10 11 12 13 12 13 13 11 11 10 10 11 11 13 14 14 16 17 18 18 19 19 19 19 19 18 18 18 17 17 16 16 15 14 14 13 13 12 12 11 11 11 10
9 10 12 12 13 13 12 12 12 11 10 10 10 11 12 14 14 14 15 16 17 18 18 18 18 18 18 18 17 17 16 15 15 14 14 13 12 12 12 11 11 11 10 10
9 9 11 12 13 13 13 12 12 11 10 10 10 11 12 14 14 14 13 14 17 18 18 18 18 17 17 17 16 16 15 15 14 14 13 12 12 12 11 11 11 10 10 10
9 9 10 11 12 12 12 12 12 11 10 10 10 11 13 14 14 14 13 15 17 18 18 18 17 17 17 16 16 15 15 14 13 13 12 12 11 11 11 10 10 10 10 10
8 9 9 10 12 12 12 12 12 11 9 9 9 11 14 13 14 14 14 16 17 18 18 17 17 17 16 16 16 15 14 13 13 12 12 11 11 10 10 10 10 10 9 9
7 8 8 9 10 11 11 11 12 12 10 9 10 12 14 13 13 14 15 16 17 17 17 17 17 17 17 16 16 15 14 13 12 12 11 11 10 10 10 10 10 9 9 9
7 7 7 8 9 10 10 11 11 11 11 10 10 12 14 14 13 13 14 16 17 17 17 17 17 17 16 16 15 15 14 13 12 11 11 10 10 10 10 10 9 9 9 9
6 6 7 8 9 10 10 11 11 11 12 11 11 12 13 14 13 13 15 16 16 16 17 17 17 17 16 16 15 15 14 13 12 11 11 10 10 10 9 9 9 9 9 9
4 5 6 7 9 10 10 11 12 12 12 11 11 12 13 13 14 14 15 15 15 16 17 17 17 17 16 16 16 15 14 13 12 11 11 10 10 9 9 9 9 9 9 8
4 4 5 6 8 9 9 11 12 12 12 12 12 13 12 13 13 13 15 15 16 17 17 17 17 17 17 16 16 15 14 13 12 11 10 10 9 9 9 8 8 8 8 8
4 4 5 6 7 8 10 11 12 12 12 12 12 13 13 14 15 17 17 17 17 17 17 17 17 17 17 16 15 15 13 12 11 11 10 10 9 9 8 8 8 8 8 7
4 4 5 6 6 7 9 10 11 11 12 12 12 12 13 15 14 15 17 17 18 18 18 18 17 17 16 16 15 14 13 12 11 11 10 9 9 8 8 8 8 7 7 7
4 4 5 5 6 7 10 10 11 12 11 12 12 12 12 12 12 13 16 17 17 17 17 17 16 16 16 15 14 14 13 12 11 11 10 9 8 8 8 7 7 7 7 6
4 4 4 5 6 7 9 10 11 10 11 12 12 13 12 12 14 16 16 17 17 17 16 16 16 15 15 14 14 13 13 12 11 10 9 8 8 7 7 7 6 6 6 5
4 4 5 5 5 7 9 9 10 10 12 13 13 13 13 14 15 15 16 16 16 16 15 15 15 15 14 14 13 13 12 11 10 9 9 8 7 7 6 6 6 5 5 5
4 5 5 5 7 8 8 9 11 12 12 13 13 13 13 13 13 14 15 15 15 15 15 14 14 14 13 13 12 12 11 10 9 9 8 7 7 6 6 5 5 5 4 4
4 4 4 5 6 7 8 9 10 11 12 13 13 14 13 13 13 14 14 14 14 14 14 14 13 13 12 12 11 11 10 10 9 8 7 7 6 6 5 5 4 4 4 3
3 3 4 5 6 6 8 9 10 11 11 12 13 13 13 13 13 13 13 13 13 13 13 13 13 12 12 11 10 10 9 9 8 7 7 6 5 5 4 4 4 3 3 3
3 3 4 5 6 6 7 8 9 10 11 11 12 12 12 13 13 13 13 13 12 12 12 12 12 11 11 10 9 9 8 8 7 7 6 5 5 4 4 3 3 2 2 2
Wind_Speed
9 10 16 20 19 10 8 8 9 8 6 7 12 16 16 12 9 11 12 12 13 14 14 11 12 13 13 14 17 20 20 19 17 15 14 14 13 11 10 10 15 18 17 17
9 20 20 13 12 12 10 10 9 7 6 7 10 14 13 13 12 12 13 14 15 14 11 10 10 10 13 16 18 20 21 20 20 17 15 12 10 8 8 8 12 17 17 17
21 13 14 14 13 16 16 15 13 8 4 3 4 9 11 11 10 11 12 13 12 15 14 12 10 11 11 15 18 19 21 19 20 16 10 8 6 5 6 9 10 11 16 17
18 13 15 16 17 17 19 15 12 11 7 6 5 6 9 9 11 12 14 13 14 13 13 11 11 11 12 15 15 17 18 18 17 16 16 17 13 10 10 9 8 9 13 15
14 17 19 22 21 20 10 10 13 12 10 8 6 6 8 7 11 14 15 14 14 13 12 12 12 11 10 11 12 14 15 16 16 17 19 18 12 9 7 8 10 10 9 12
13 11 17 17 15 16 8 6 6 4 5 12 14 9 9 9 13 11 12 12 12 11 11 10 8 7 6 7 9 11 14 15 15 17 17 18 16 12 12 11 12 10 7 8
13 15 12 11 13 13 11 9 7 7 8 10 10 9 11 12 13 14 13 12 11 10 9 9 8 8 8 8 9 11 14 14 15 16 17 17 16 16 16 14 13 11 8 7
13 14 16 12 17 15 19 17 12 9 8 5 7 11 10 12 11 10 11 10 10 10 9 10 10 10 9 9 10 11 14 13 14 16 15 14 14 13 11 13 12 13 11 9
11 11 9 13 10 15 15 16 11 6 4 4 7 7 8 6 7 8 9 9 11 10 10 10 9 9 9 10 11 12 13 12 13 14 13 13 14 13 12 12 11 10 9 9
6 7 8 11 8 13 14 12 7 8 9 8 6 7 7 8 11 11 11 11 12 10 9 9 9 9 9 9 8 9 10 11 11 12 12 11 12 12 12 12 13 12 11 11
4 6 6 11 15 17 11 14 9 9 7 8 6 8 9 13 13 13 14 13 12 11 10 10 9 8 8 7 8 8 9 9 10 11 11 11 11 11 12 12 13 12 11 12
5 4 7 11 10 11 11 12 12 13 9 8 6 9 7 10 11 12 13 12 11 11 10 9 9 8 8 8 8 9 9 9 10 10 10 10 11 11 12 12 12 12 13 12
4 4 5 5 5 7 11 11 12 11 6 7 8 9 5 4 7 9 11 12 11 10 9 8 8 9 9 9 9 9 9 9 9 9 10 10 11 12 13 12 12 12 12 12
5 6 8 11 9 10 11 13 13 11 12 12 12 10 6 5 7 8 9 11 11 11 10 10 9 9 9 9 10 10 9 9 9 10 10 11 12 12 12 11 12 12 12 13
2 7 8 9 7 10 12 16 17 16 17 15 14 14 13 11 10 10 9 9 9 10 10 11 11 10 9 9 9 10 10 10 10 10 11 11 10 10 10 11 11 11 11 12
2 5 7 10 9 10 11 17 22 22 19 17 11 13 12 10 8 8 9 10 11 12 13 12 11 11 11 12 11 11 11 10 10 11 10 9 10 10 10 11 11 11 10 10
4 3 5 8 6 6 15 22 24 21 18 18 21 19 8 9 12 13 13 12 13 13 13 13 13 13 13 13 12 12 11 10 10 10 10 10 11 11 10 11 11 11 10 9
9 7 4 4 5 12 12 11 14 19 20 20 17 12 13 14 13 12 12 14 14 13 12 12 11 11 10 9 9 9 9 10 11 10 10 10 11 10 10 11 11 10 8 9
15 10 5 5 7 8 8 8 17 18 18 17 18 15 14 11 8 10 11 12 13 13 11 11 10 9 9 10 10 10 10 10 10 10 10 11 11 11 11 11 10 7 7 7
14 12 7 5 7 10 9 6 7 10 14 13 16 17 14 12 12 14 10 10 10 9 8 7 7 7 8 9 11 12 11 11 11 11 10 10 11 11 11 10 8 6 7 7
8 9 12 9 7 9 7 4 10 11 11 7 14 16 14 17 17 10 9 9 9 8 8 8 9 8 8 10 11 11 10 10 9 9 9 9 9 10 10 8 6 7 7 7
6 6 10 8 8 10 3 5 9 6 2 3 8 11 14 14 11 9 11 10 11 9 8 9 9 8 7 10 12 11 9 8 9 10 9 9 8 8 8 9 7 7 8 7
6 6 3 7 8 6 4 5 5 2 2 3 4 5 8 9 8 9 10 10 10 10 10 9 11 10 7 8 10 12 8 10 11 10 9 9 8 7 8 9 8 6 6 5
5 4 4 6 9 11 11 8 5 5 4 4 3 3 4 6 9 10 11 10 10 10 10 10 12 11 8 7 8 9 10 11 12 11 9 9 9 8 7 6 6 6 6 5
6 4 5 8 10 10 9 6 7 7 6 3 3 1 3 7 9 10 11 11 11 10 8 10 11 11 10 9 9 9 10 12 12 11 9 8 8 8 7 5 4 5 4 5
9 9 9 9 7 7 11 11 8 7 6 3 1 2 1 5 10 10 11 10 11 11 10 11 11 11 10 10 10 9 9 12 13 10 8 7 6 6 6 6 4 5 4 4
Wind_Direction
195 194 208 208 206 202 187 196 217 228 227 199 222 234 242 241 232 235 240 241 240 238 239 232 223 212 201 196 191 190 188 184 179 182 182 184 189 187 187 187 186 186 186 186
200 218 215 204 201 206 215 225 234 260 250 216 234 243 246 241 233 230 232 235 236 241 246 239 227 206 195 193 192 190 188 184 184 188 188 187 178 179 181 180 186 188 186 184
210 217 198 200 203 208 218 220 225 233 285 275 255 271 253 253 242 240 236 233 234 231 233 232 223 211 196 194 192 191 190 187 186 181 168 150 138 138 169 187 190 190 187 184
218 219 195 202 210 204 224 215 215 219 227 252 216 260 261 247 256 250 245 239 234 231 226 222 215 210 201 199 193 190 187 185 184 175 175 174 180 185 187 183 184 182 184 182
213 203 204 208 209 202 211 196 209 218 218 241 239 242 265 248 247 249 245 240 237 229 219 216 212 208 203 192 187 186 182 183 181 180 181 183 186 183 165 163 173 179 182 180
225 213 209 214 211 206 191 171 191 208 205 235 225 221 261 224 225 237 240 236 230 219 212 209 206 192 189 180 179 179 179 182 181 181 182 185 183 172 165 172 179 181 179 180
223 227 219 197 200 203 186 173 193 205 216 236 206 213 246 229 225 223 226 224 217 208 199 195 191 188 184 178 178 178 179 183 182 182 184 187 184 179 179 179 182 179 178 182
205 217 211 204 202 197 198 189 192 194 202 229 193 222 243 234 232 225 219 212 205 204 201 198 196 192 190 185 179 178 182 183 182 184 186 184 180 182 186 182 181 184 187 184
203 222 195 205 193 183 189 201 186 163 174 192 227 253 285 238 215 208 205 199 204 206 202 199 194 190 189 187 185 182 181 181 183 184 181 181 181 183 183 180 178 182 179 175
190 217 214 197 185 201 190 173 166 182 187 218 244 235 228 213 211 213 208 205 210 206 198 195 191 191 192 188 183 178 179 181 180 181 182 184 184 184 180 178 182 181 176 173
202 202 209 188 196 195 181 181 174 178 191 187 221 247 218 208 206 206 210 207 202 199 196 195 193 192 185 178 175 178 180 178 179 181 180 180 181 180 178 181 183 180 176 174
215 204 216 213 217 194 191 188 176 191 201 188 196 254 243 214 209 198 201 203 199 194 192 191 188 180 180 182 183 184 183 182 183 180 177 178 176 176 179 182 180 175 176 177
225 220 206 204 215 203 199 195 191 188 167 184 198 245 269 222 213 201 193 195 193 189 188 187 183 186 189 189 189 188 186 185 180 176 177 176 176 178 181 180 176 174 175 174
211 217 219 212 216 198 208 208 199 187 208 213 214 218 241 225 206 205 200 194 188 188 188 188 194 198 195 192 191 190 190 184 178 177 178 181 181 181 179 175 174 174 173 173
216 223 240 264 259 205 218 210 204 209 209 211 218 214 221 222 212 207 204 196 187 193 197 198 199 200 196 193 192 190 189 184 178 177 182 185 179 174 171 171 172 170 171 173
227 236 245 253 246 225 224 216 212 218 215 218 218 227 221 223 216 220 215 202 198 201 203 204 201 197 198 197 194 189 187 182 176 180 184 175 169 168 169 168 166 165 167 165
219 217 225 233 245 236 227 213 208 214 217 212 222 228 201 203 213 216 214 206 206 208 206 203 201 201 201 198 191 189 184 172 173 177 173 169 167 167 167 163 162 165 167 163
218 212 218 221 212 222 231 207 204 215 221 216 221 214 205 212 215 217 210 204 209 208 204 203 202 200 197 187 179 173 164 166 171 172 170 167 164 163 160 161 165 166 163 167
210 202 205 201 215 254 272 215 196 203 227 218 221 221 214 209 218 237 220 203 204 202 198 198 194 187 177 172 167 158 161 165 168 173 171 168 164 161 162 166 166 160 159 164
200 199 203 202 208 226 235 224 185 180 235 221 212 218 212 180 212 234 214 197 197 187 177 173 162 152 158 163 154 155 162 166 175 174 168 162 160 162 165 165 158 152 156 161
185 196 207 216 221 253 255 221 142 180 234 220 210 215 203 201 218 211 176 177 174 164 158 149 142 147 159 153 149 154 159 172 168 151 146 148 153 156 154 149 146 144 143 142
199 198 199 204 217 241 278 136 177 233 288 223 220 217 207 212 210 179 168 165 156 149 144 140 136 137 140 145 146 150 160 154 137 135 136 139 140 142 140 137 136 138 141 144
211 211 215 217 233 279 290 252 263 266 260 253 242 240 205 197 190 174 167 160 156 151 145 139 134 128 127 140 145 148 148 135 130 128 131 131 129 129 134 139 139 137 140 147
238 224 228 258 264 283 290 292 301 308 289 277 253 214 186 184 170 160 156 153 149 144 140 135 131 131 131 131 130 135 134 132 129 129 129 129 128 124 123 128 138 143 151 154
232 230 237 251 274 288 284 290 302 313 322 338 353 282 180 161 159 158 157 155 150 141 136 136 137 137 135 129 123 126 130 128 126 126 126 124 124 127 123 119 131 146 165 169
220 220 229 245 250 256 274 287 293 294 285 275 321 348 316 167 157 151 152 150 144 141 136 133 131 132 131 127 124 125 128 130 129 128 126 126 124 121 122 118 92 78 102 123
Height
1456 1461 1459 1458 1460 1464 1467 1470 1471 1467 1462 1466 1467 1464 1460 1458 1459 1459 1458 1459 1459 1460 1463 1465 1468 1470 1472 1474 1477 1479 1482 1485 1489 1493 1496 1499 1503 1506 1510 1513 1517 1520 1523 1525
1455 1451 1447 1452 1456 1461 1464 1467 1468 1465 1460 1462 1464 1461 1456 1453 1453 1452 1452 1452 1452 1454 1456 1458 1460 1462 1464 1467 1469 1472 1475 1479 1482 1485 1489 1493 1497 1501 1506 1510 1513 1516 1519 1522
1441 1438 1443 1449 1452 1457 1458 1462 1464 1465 1460 1459 1462 1463 1455 1448 1446 1445 1445 1444 1445 1447 1448 1451 1453 1455 1457 1460 1462 1465 1469 1472 1476 1480 1485 1490 1495 1499 1502 1505 1508 1512 1515 1518
1435 1434 1438 1442 1445 1449 1452 1451 1456 1461 1466 1469 1464 1472 1456 1447 1443 1439 1437 1437 1437 1439 1441 1444 1446 1448 1450 1453 1456 1459 1463 1467 1471 1475 1478 1482 1485 1489 1492 1497 1502 1507 1511 1514
1425 1426 1430 1433 1434 1439 1443 1445 1452 1456 1462 1467 1464 1468 1456 1444 1441 1434 1430 1429 1430 1432 1434 1436 1439 1442 1444 1447 1450 1454 1457 1461 1465 1469 1472 1476 1480 1484 1489 1494 1498 1503 1506 1510
1419 1420 1422 1423 1427 1433 1439 1445 1450 1455 1461 1468 1460 1464 1453 1441 1432 1426 1423 1423 1423 1426 1428 1431 1434 1436 1439 1442 1445 1448 1452 1455 1459 1463 1466 1470 1475 1479 1484 1488 1493 1497 1501 1505
1416 1415 1415 1418 1425 1430 1435 1447 1458 1461 1464 1460 1451 1453 1441 1426 1419 1417 1417 1417 1419 1421 1424 1426 1429 1431 1434 1437 1440 1443 1446 1450 1453 1457 1461 1465 1470 1474 1478 1483 1487 1492 1496 1499
1415 1412 1409 1409 1412 1419 1425 1433 1446 1453 1457 1454 1448 1445 1427 1414 1410 1410 1411 1413 1415 1417 1419 1422 1424 1427 1430 1432 1435 1438 1441 1444 1448 1452 1456 1461 1465 1470 1474 1478 1483 1487 1491 1495
1408 1406 1399 1400 1402 1409 1419 1424 1427 1440 1447 1450 1445 1434 1420 1409 1408 1407 1408 1410 1411 1413 1415 1418 1420 1423 1426 1428 1430 1433 1436 1439 1443 1447 1451 1455 1460 1465 1469 1474 1478 1483 1487 1491
1401 1404 1396 1395 1398 1400 1404 1414 1425 1435 1444 1446 1439 1432 1422 1408 1406 1405 1406 1406 1406 1409 1411 1414 1417 1419 1422 1425 1427 1429 1432 1435 1439 1442 1446 1451 1455 1460 1465 1469 1474 1478 1482 1486
1398 1400 1395 1392 1392 1396 1402 1408 1412 1424 1432 1436 1439 1427 1401 1398 1397 1399 1399 1400 1402 1405 1408 1410 1413 1416 1419 1421 1424 1426 1428 1431 1434 1438 1442 1446 1451 1456 1461 1465 1469 1474 1478 1482
1396 1396 1394 1389 1384 1385 1391 1395 1403 1414 1423 1425 1429 1417 1388 1389 1389 1391 1393 1396 1399 1402 1405 1408 1411 1414 1416 1418 1420 1422 1424 1427 1430 1434 1438 1442 1447 1452 1456 1460 1465 1469 1473 1477
1396 1396 1395 1392 1391 1388 1388 1390 1392 1400 1412 1420 1421 1409 1386 1386 1386 1387 1389 1392 1395 1399 1402 1405 1408 1410 1413 1415 1417 1419 1421 1424 1427 1431 1435 1439 1443 1447 1452 1456 1461 1465 1469 1473
1394 1394 1391 1386 1379 1381 1385 1386 1388 1395 1401 1405 1404 1397 1388 1385 1386 1386 1387 1389 1392 1396 1399 1402 1405 1407 1410 1412 1414 1416 1418 1421 1424 1428 1431 1435 1439 1443 1448 1453 1457 1461 1465 1469
1392 1391 1387 1383 1377 1376 1377 1378 1382 1384 1384 1392 1390 1391 1385 1382 1383 1383 1384 1387 1390 1393 1396 1398 1401 1404 1407 1409 1411 1413 1416 1418 1421 1424 1428 1431 1436 1441 1445 1449 1453 1457 1461 1465
1392 1389 1386 1381 1374 1371 1371 1370 1372 1373 1376 1380 1383 1382 1375 1376 1379 1381 1382 1384 1386 1388 1391 1394 1397 1400 1403 1405 1407 1410 1412 1415 1418 1421 1425 1429 1433 1437 1441 1445 1450 1454 1457 1461
1390 1391 1387 1380 1373 1371 1368 1357 1360 1363 1363 1368 1371 1368 1371 1374 1375 1376 1378 1381 1382 1384 1387 1390 1393 1396 1399 1401 1404 1406 1409 1412 1415 1418 1422 1426 1430 1433 1438 1442 1446 1450 1453 1457
1387 1387 1386 1380 1377 1371 1351 1344 1349 1353 1353 1356 1358 1360 1363 1365 1367 1369 1372 1375 1377 1380 1383 1386 1389 1392 1395 1398 1401 1403 1406 1409 1412 1415 1419 1423 1426 1430 1435 1439 1442 1446 1450 1453
1376 1380 1381 1376 1372 1361 1348 1341 1340 1346 1347 1346 1350 1353 1356 1359 1364 1364 1366 1369 1371 1375 1378 1381 1385 1388 1391 1394 1397 1400 1403 1406 1409 1412 1415 1419 1423 1427 1431 1435 1439 1442 1446 1449
1368 1372 1376 1372 1368 1356 1339 1333 1332 1342 1345 1338 1342 1346 1349 1356 1362 1357 1359 1363 1367 1370 1374 1377 1381 1384 1387 1390 1393 1396 1399 1402 1405 1409 1413 1417 1421 1425 1428 1432 1436 1439 1443 1446
1364 1366 1368 1366 1362 1348 1334 1329 1332 1345 1336 1330 1333 1336 1340 1344 1344 1348 1354 1358 1362 1365 1369 1373 1376 1380 1383 1387 1390 1393 1396 1399 1403 1407 1411 1415 1418 1422 1426 1430 1433 1436 1439 1442
1358 1358 1358 1359 1358 1346 1329 1329 1331 1329 1326 1325 1326 1328 1331 1333 1337 1342 1347 1351 1356 1360 1365 1369 1372 1376 1380 1384 1387 1390 1394 1398 1402 1405 1409 1412 1416 1420 1423 1427 1430 1433 1436 1439
1354 1353 1351 1349 1341 1330 1328 1328 1326 1326 1325 1324 1323 1324 1326 1329 1332 1336 1341 1346 1351 1356 1361 1365 1369 1373 1378 1382 1385 1388 1392 1396 1400 1403 1407 1411 1414 1418 1421 1425 1427 1430 1433 1435
1350 1348 1348 1344 1335 1330 1327 1325 1324 1323 1323 1322 1322 1322 1323 1325 1327 1332 1337 1342 1347 1352 1357 1362 1367 1371 1375 1380 1384 1388 1391 1395 1398 1402 1406 1409 1413 1416 1419 1423 1425 1428 1430 1432
1347 1346 1344 1339 1334 1330 1323 1323 1324 1323 1322 1321 1321 1321 1322 1323 1325 1329 1334 1339 1344 1350 1355 1360 1365 1369 1374 1378 1382 1386 1390 1394 1397 1401 1404 1408 1411 1415 1418 1421 1423 1425 1427 1429
1339 1340 1340 1334 1332 1331 1325 1323 1323 1323 1322 1321 1321 1320 1321 1323 1325 1328 1333 1338 1343 1348 1353 1359 1364 1368 1373 1377 1381 1386 1390 1393 1396 1400 1403 1407 1410 1413 1416 1419 1421 1423 1425 1426